User: anonymous   Login
Location: *
(37.5724°S, 58.0067°E)
Time: 13:37:13
(UTC+00:00)
Language:

Cosmos 1455 Rocket - Orbit

View from above orbital plane
View from above orbital plane
View from above satellite
View from above satellite

Ground track
Ground track

The orbit data is extracted from the following two-line orbital elements,

1 14033U 83037B   20334.02386577  .00000133  00000-0  13138-4 0  9999
2 14033  82.5088 243.2555 0016237 276.7949  83.1419 14.83827606666574
Epoch (UTC): 29 November 2020 00:34:22
Eccentricity: 0.0016237
inclination: 82.5088°
perigee height: 606 km
apogee height: 628 km
right ascension of ascending node: 243.2555°
argument of perigee: 276.7949°
revolutions per day: 14.83827606
mean anomaly at epoch: 83.1419°
orbit number at epoch: 66657

The dashed part of the orbit path shows where the satellite is in the earth's shadow,  

DLR